Homestead AFB, FL

3:06 PM EDT on September 21, 2017 (GMT -0400)
Dade County-Homestead Regional

Weather History for KHST - July, 2013

Change the Weather History Date:

Friday, July 26, 2013

  Actual Average Record
Temperature  
Mean Temperature 83 °F -  
Max Temperature 91 °F 90 °F 96 °F (1940)
Min Temperature 75 °F 72 °F 67 °F (1934)
Cooling Degree Days 18    
Growing Degree Days 33 (Base 50)    
Moisture  
Dew Point 74 °F    
Average Humidity 76    
Maximum Humidity 94    
Minimum Humidity 59    
Precipitation  
Precipitation 0.00 in - - ()
Sea Level Pressure  
Sea Level Pressure 30.03 in    
Wind  
Wind Speed 7 mph (SW)    
Max Wind Speed 16 mph    
Max Gust Speed -    
Visibility 10 miles    
Events      
Averages and records for this station are not official NWS values.
T = Trace of Precipitation, MM = Missing Value Source: NWS Daily Summary

Daily Weather History Graph

Daily Weather History Graph

Search for Another Location

Airport or City:

Trip Planner

Search our weather history database for the weather conditions in past years. The results will help you decide how hot, cold, wet, or windy it might be!

Date:

Astronomy

Jul. 26, 2013 Rise Set
Actual Time 6:45 AM EDT 8:10 PM EDT
Civil Twilight 6:20 AM EDT 8:35 PM EDT
Nautical Twilight 5:50 AM EDT 9:04 PM EDT
Astronomical Twilight 5:19 AM EDT 9:35 PM EDT
Moon 11:00 PM EDT (7/26) 10:46 AM EDT (7/26)
Length of Visible Light 14h 14m
Length of Day
13h 24m
Waning Gibbous, 80% of the Moon is Illuminated
Jul 26
Waning Gibbous
Jul 29
Last Quarter
Aug 6
New
Aug 14
First Quarter
Aug 20
Full

Hourly Weather History & Observations

Time (EDT) Temp. Heat Index Dew Point Humidity Pressure Visibility Wind Dir Wind Speed Gust Speed Precip Events Conditions
12:58 AM 79.2 °F - 73.4 °F 82% 30.05 in 10.0 mi WSW 5.8 mph - N/A   Clear
1:58 AM 77.0 °F - 73.4 °F 89% 30.03 in 10.0 mi SW 5.8 mph - N/A   Clear
2:58 AM 78.8 °F - 73.4 °F 83% 30.03 in 10.0 mi SSW 2.3 mph - N/A   Clear
3:58 AM 77.0 °F - 73.4 °F 89% 30.02 in 10.0 mi SW 3.5 mph - N/A   Clear
4:58 AM 75.2 °F - 73.4 °F 94% 30.02 in 10.0 mi SW 4.6 mph - N/A   Clear
5:58 AM 77.0 °F - 73.4 °F 89% 30.03 in 10.0 mi WSW 2.3 mph - N/A   Clear
6:58 AM 75.2 °F - 73.4 °F 94% 30.05 in 10.0 mi SSW 3.5 mph - N/A   Clear
7:58 AM 77.0 °F - 75.2 °F 94% 30.05 in 10.0 mi SSW 4.6 mph - N/A   Clear
8:58 AM 80.6 °F 87.1 °F 77.0 °F 89% 30.07 in 10.0 mi SSW 4.6 mph - N/A   Clear
9:58 AM 84.2 °F 92.3 °F 75.2 °F 74% 30.05 in 10.0 mi West 9.2 mph - N/A   Clear
10:58 AM 87.8 °F 95.6 °F 73.4 °F 62% 30.06 in 10.0 mi NW 8.1 mph - N/A   Clear
11:58 AM 87.8 °F 97.6 °F 75.2 °F 66% 30.05 in 10.0 mi West 8.1 mph - N/A   Scattered Clouds
12:58 PM 89.6 °F 99.8 °F 75.2 °F 62% 30.04 in 10.0 mi West 8.1 mph - N/A   Mostly Cloudy
1:58 PM 89.6 °F 99.8 °F 75.2 °F 62% 30.03 in 10.0 mi Variable 4.6 mph - N/A   Mostly Cloudy
2:58 PM 91.4 °F 102.5 °F 75.2 °F 59% 30.01 in 10.0 mi South 9.2 mph - N/A   Scattered Clouds
3:58 PM 89.6 °F 99.8 °F 75.2 °F 62% 29.99 in 10.0 mi SSW 11.5 mph - N/A   Mostly Cloudy
4:58 PM 87.8 °F 95.6 °F 73.4 °F 62% 29.99 in 10.0 mi SSW 8.1 mph - N/A   Mostly Cloudy
5:58 PM 87.8 °F 97.6 °F 75.2 °F 66% 29.99 in 10.0 mi SW 16.1 mph - N/A   Mostly Cloudy
6:58 PM 87.8 °F 95.6 °F 73.4 °F 62% 29.99 in 10.0 mi SW 15.0 mph - N/A   Mostly Cloudy
7:58 PM 86.0 °F 93.4 °F 73.4 °F 66% 30.01 in 10.0 mi WSW 13.8 mph - N/A   Mostly Cloudy
8:58 PM 84.2 °F 92.3 °F 75.2 °F 74% 30.02 in 10.0 mi WSW 12.7 mph - N/A   Mostly Cloudy
9:58 PM 82.4 °F 89.5 °F 75.2 °F 79% 30.04 in 10.0 mi West 9.2 mph - N/A   Scattered Clouds
10:58 PM 80.6 °F 86.2 °F 75.2 °F 84% 30.03 in 10.0 mi West 6.9 mph - N/A   Scattered Clouds
11:58 PM 78.8 °F - 75.2 °F 89% 30.04 in 10.0 mi SW 5.8 mph - N/A   Clear